Preview of NWS' New Version of Forecast
This preview is not operational and should not be used for support decisions.

Regional Weather Roundup (RWR)

Issued by National Weather Service (NWS)

                            
000
ASUS45 KABQ 222210
RWRNM 
NEW MEXICO REGIONAL WEATHER ROUNDUP
NATIONAL WEATHER SERVICE ALBUQUERQUE NM
400 PM MDT MON JUL 22 2019

NOTE: "FAIR" MEANS FEW OR NO CLOUDS BELOW 12,000 FEET AGL WITH NO
       SIGNIFICANT WEATHER OR OBSTRUCTIONS TO VISION.

      THIS PRODUCT IS RELEASED AS TWO VERSIONS.  ONE VERSION NEAR
      THE TOP OF THE HOUR CONTAINING PRELIMINARY DATA FROM ALBUQUERQUE
      AND OTHER STATIONS.  A FINAL VERSION WITH ADDITIONAL DATA IS 
      ISSUED ABOUT 10 MINUTES AFTER THE HOUR.
 
NMZ501-503-504-510>518-222300-
NORTHWEST PLATEAU/NORTHCENTRAL MOUNTAINS
  
CITY           SKY/WX    TMP DP  RH WIND       PRES   REMARKS
FARMINGTON     FAIR      95  42  16 VRB6      30.18F                  
LOS ALAMOS       N/A     79  45  29 S10G25    30.42F                  
SANTA FE       FAIR      82  49  31 SE20G30   30.35F                  
ANGEL FIRE     RAIN      56  47  73 NW17G29   30.56R                  

$$
NMZ402-403-502-505>509-222300-
WESTCENTRAL MOUNTAINS/SOUTHWEST MOUNTAINS
  
CITY           SKY/WX    TMP DP  RH WIND       PRES   REMARKS
GALLUP         LGT RAIN  78  44  29 E23G38    30.31R                  
GRANTS         FAIR      88  44  21 SE16G23   30.33F                  
SILVER CITY    FAIR      89  50  25 S14       30.24F                  

$$
NMZ407-409-411-412-222300-
SOUTHERN DESERTS
  
CITY           SKY/WX    TMP DP  RH WIND       PRES   REMARKS
DEMING         FAIR      93  52  24 SE12G24   30.16F                  
LAS CRUCES     FAIR      91  52  26 SE16G24   30.20F                  
ALAMOGORDO     PTSUNNY   77  59  53 SE13      30.21S                  
T OR C         FAIR      93  50  23 E7        30.17F                  

$$
NMZ519>523-222300-
CENTRAL VALLEYS/CENTRAL HIGHLANDS
  
CITY           SKY/WX    TMP DP  RH WIND       PRES   REMARKS
ALBUQUERQUE    PTSUNNY   88  51  28 SE14G23   30.26F                  
DOUBLE EAGLE   PTSUNNY   88  52  29 SE15G22   30.30F                  
MORIARTY ARPT  PTSUNNY   82  51  33 E12G17    30.39F                  
CLINES CORNERS FAIR      73  53  49 E17G28    30.45F                  
BELEN          FAIR      91  46  21 S15G21    30.25F                  
SOCORRO        FAIR      90  48  23 E9        30.22F                  

$$
NMZ524>526-539-540-222300-
SOUTHCENTRAL MOUNTAINS
  
CITY           SKY/WX    TMP DP  RH WIND       PRES   REMARKS
RUIDOSO          N/A     72  55  56 E13G21    30.44F                  

$$
NMZ527>531-222300-
NORTHEAST HIGHLANDS/NORTHEAST PLAINS
  
CITY           SKY/WX    TMP DP  RH WIND       PRES   REMARKS
LAS VEGAS      FAIR      75  52  44 S14G22    30.44F                  
RATON          PTSUNNY   81  52  36 S20G25    30.37F                  
CLAYTON        PTSUNNY   78  58  49 E13G22    30.35F                  

$$
NMZ532>537-222300-
EASTCENTRAL PLAINS
  
CITY           SKY/WX    TMP DP  RH WIND       PRES   REMARKS
SANTA ROSA     FAIR      86  56  36 E9G16     30.33F                  
TUCUMCARI      PTSUNNY   81  61  50 CALM      30.27F                  
CANNON AFB     CLOUDY    78  59  52 NE14      30.30F                  
CLOVIS AIRPORT FAIR      79  57  46 NE12      30.30F                  

$$
NMZ028-029-538-222300-
SOUTHEAST PLAINS
  
CITY           SKY/WX    TMP DP  RH WIND       PRES   REMARKS
ROSWELL        FAIR      87  61  41 E8        30.22F                  
ARTESIA        FAIR      82  64  54 NE18      30.22F                  
CARLSBAD       PTSUNNY   73  67  81 W13       30.17R                  
HOBBS          PTSUNNY   86  59  39 N22G28    30.18F                  


$$